Rogers, AR

1:21 AM CDT on May 26, 2018 (GMT -0500)
Rogers Municipal-Carter

Weather History for KROG - March, 2014

Change the Weather History Date:

Wednesday, March 19, 2014

  Actual Average Record
Temperature  
Mean Temperature 45 °F -  
Max Temperature 53 °F 55 °F 81 °F (2017)
Min Temperature 37 °F 36 °F 30 °F (2016)
Degree Days  
Heating Degree Days 20    
Moisture  
Dew Point 30 °F    
Average Humidity 59    
Maximum Humidity 79    
Minimum Humidity 37    
Precipitation  
Precipitation 0.00 in - - ()
Sea Level Pressure  
Sea Level Pressure 30.07 in    
Wind  
Wind Speed 14 mph (West)    
Max Wind Speed 22 mph    
Max Gust Speed 32 mph    
Visibility 10 miles    
Events      
Averages and records for this station are not official NWS values.
T = Trace of Precipitation, MM = Missing Value Source: NWS Daily Summary

Daily Weather History Graph

Daily Weather History Graph

Search for Another Location

Airport or City:

Astronomy

Mar. 19, 2014 Rise Set
Actual Time 7:21 AM CDT 7:27 PM CDT
Civil Twilight 6:55 AM CDT 7:53 PM CDT
Nautical Twilight 6:25 AM CDT 8:23 PM CDT
Astronomical Twilight 5:55 AM CDT 8:53 PM CDT
Moon 10:40 PM CDT (3/19) 8:53 AM CDT (3/19)
Length of Visible Light 12h 57m
Length of Day
12h 05m
Waning Gibbous, 91% of the Moon is Illuminated
Mar 19
Waning Gibbous
Mar 23
Last Quarter
Mar 30
New
Apr 7
First Quarter
Apr 15
Full

Hourly Weather History & Observations

Time (CDT) Temp. Windchill Dew Point Humidity Pressure Visibility Wind Dir Wind Speed Gust Speed Precip Events Conditions
12:57 AM 46.9 °F - 32.0 °F 56% 29.80 in 10.0 mi West 19.6 mph 32.2 mph N/A   Clear
1:57 AM 43.0 °F 34.0 °F 30.9 °F 62% 29.84 in 10.0 mi West 21.9 mph 27.6 mph N/A   Mostly Cloudy
2:57 AM 42.1 °F 33.9 °F 30.0 °F 62% 29.86 in 10.0 mi West 17.3 mph 26.5 mph N/A   Overcast
3:57 AM 41.0 °F 32.2 °F 30.9 °F 67% 29.87 in 10.0 mi West 18.4 mph 25.3 mph N/A   Overcast
4:15 AM 41.0 °F 32.8 °F 30.2 °F 65% 29.88 in 10.0 mi West 16.1 mph 23.0 mph N/A   Overcast
4:57 AM 41.0 °F 32.2 °F 30.9 °F 67% 29.90 in 10.0 mi West 18.4 mph 25.3 mph N/A   Overcast
5:57 AM 39.9 °F 31.8 °F 32.0 °F 73% 29.94 in 10.0 mi WNW 15.0 mph - N/A   Overcast
6:57 AM 39.0 °F 32.3 °F 32.0 °F 76% 29.99 in 10.0 mi WNW 10.4 mph - N/A   Overcast
7:57 AM 37.0 °F 30.4 °F 30.9 °F 79% 30.03 in 10.0 mi WNW 9.2 mph - N/A   Overcast
8:57 AM 37.0 °F 27.0 °F 30.9 °F 79% 30.06 in 10.0 mi WNW 18.4 mph 23.0 mph N/A   Overcast
9:57 AM 37.9 °F 30.0 °F 30.0 °F 73% 30.11 in 10.0 mi West 12.7 mph - N/A   Overcast
10:57 AM 39.0 °F 32.8 °F 30.0 °F 70% 30.15 in 10.0 mi WNW 9.2 mph - N/A   Overcast
11:57 AM 41.0 °F 33.5 °F 30.0 °F 65% 30.17 in 10.0 mi WNW 13.8 mph - N/A   Overcast
12:57 PM 43.0 °F 36.4 °F 30.9 °F 62% 30.19 in 10.0 mi WNW 12.7 mph 18.4 mph N/A   Mostly Cloudy
1:41 PM 44.6 °F 38.8 °F 30.2 °F 57% 30.17 in 10.0 mi WSW 11.5 mph - N/A   Scattered Clouds
1:57 PM 46.0 °F 41.4 °F 30.9 °F 56% 30.18 in 10.0 mi West 9.2 mph - N/A   Partly Cloudy
2:57 PM 48.9 °F - 30.9 °F 50% 30.16 in 10.0 mi West 11.5 mph 17.3 mph N/A   Clear
3:57 PM 51.1 °F - 30.9 °F 46% 30.15 in 10.0 mi WNW 12.7 mph - N/A   Clear
4:57 PM 52.0 °F - 27.0 °F 38% 30.14 in 10.0 mi NW 11.5 mph - N/A   Clear
5:57 PM 53.1 °F - 27.0 °F 37% 30.14 in 10.0 mi WNW 9.2 mph - N/A   Clear
6:57 PM 52.0 °F - 26.1 °F 37% 30.15 in 10.0 mi WNW 8.1 mph - N/A   Clear
7:57 PM 48.0 °F - 26.1 °F 42% 30.17 in 10.0 mi West 5.8 mph - N/A   Clear
8:57 PM 46.9 °F - 27.0 °F 46% 30.19 in 10.0 mi WSW 3.5 mph - N/A   Clear
9:57 PM 44.1 °F - 27.0 °F 51% 30.21 in 10.0 mi Calm Calm - N/A   Clear
10:57 PM 42.1 °F 40.2 °F 28.0 °F 58% 30.21 in 10.0 mi SSW 3.5 mph - N/A   Clear
11:57 PM 39.9 °F 36.7 °F 28.0 °F 63% 30.21 in 10.0 mi SSW 4.6 mph - N/A   Clear